When you browse on this site, cookies collect data to enhance your experience and personalize the content and advertising you see.
Visit our Privacy Policy to learn more. By continuing to use the site, you agree to this use of cookies and data.
  • In France
  • List of Countries
  • For 7 days
  • Water Temperature
  • Weather Map
  • Weather Widgets
  • user-avatar
    Login

    Hourly Weather Williamsport

    Today, 29 May, Friday

    Time Temperature Precipitation Wind Pressure Humidity
    00:00 +21°C° 1 mm 1 mps 734 mmHg 99%
    01:00 +21°C° 1 mm 1 mps 734 mmHg 99%
    02:00 +21°C° 0.4 mm 1 mps 734 mmHg 99%
    03:00 +21°C° 0.4 mm 1 mps 733 mmHg 99%
    04:00 +21°C° 0.4 mm 1 mps 733 mmHg 99%
    05:00 +22°C° 0.3 mm 1 mps 733 mmHg 98%
    06:00 +22°C° 0.3 mm 1 mps 733 mmHg 98%
    07:00 +23°C° 0.3 mm 2 mps 734 mmHg 97%
    08:00 +24°C° 0 mm 2 mps 733 mmHg 93%
    09:00 +24°C° 0 mm 2 mps 733 mmHg 89%
    10:00 +25°C° 0 mm 2 mps 733 mmHg 85%
    11:00 +26°C° 0.6 mm 3 mps 733 mmHg 81%
    12:00 +27°C° 0.6 mm 3 mps 732 mmHg 77%
    13:00 +27°C° 0.6 mm 4 mps 732 mmHg 73%
    14:00 +27°C° 0.3 mm 4 mps 731 mmHg 71%
    15:00 +27°C° 0.3 mm 4 mps 731 mmHg 70%
    16:00 +27°C° 0.3 mm 5 mps 730 mmHg 68%
    17:00 +25°C° 1.4 mm 4 mps 730 mmHg 77%
    18:00 +22°C° 1.4 mm 3 mps 730 mmHg 86%
    19:00 +20°C° 1.4 mm 2 mps 730 mmHg 94%
    20:00 +20°C° 0.4 mm 2 mps 730 mmHg 95%
    21:00 +19°C° 0.4 mm 2 mps 731 mmHg 95%
    22:00 +18°C° 0.4 mm 2 mps 731 mmHg 95%
    23:00 +18°C° 0 mm 2 mps 731 mmHg 96%

    Tomorrow, 30 May, Saturday

    Time Temperature Precipitation Wind Pressure Humidity
    00:00 +17°C° 0 mm 2 mps 731 mmHg 96%
    01:00 +17°C° 0 mm 2 mps 731 mmHg 97%
    02:00 +16°C° 0 mm 2 mps 731 mmHg 97%
    03:00 +14°C° 0 mm 2 mps 731 mmHg 97%
    04:00 +13°C° 0 mm 2 mps 731 mmHg 96%
    05:00 +13°C° 0 mm 2 mps 732 mmHg 94%
    06:00 +14°C° 0 mm 2 mps 732 mmHg 92%
    07:00 +14°C° 0 mm 1 mps 733 mmHg 89%
    08:00 +16°C° 0 mm 2 mps 733 mmHg 77%
    09:00 +18°C° 0 mm 2 mps 733 mmHg 66%
    10:00 +21°C° 0 mm 2 mps 733 mmHg 54%
    11:00 +21°C° 0 mm 3 mps 733 mmHg 51%
    12:00 +22°C° 0 mm 3 mps 733 mmHg 49%
    13:00 +23°C° 0 mm 4 mps 732 mmHg 46%
    14:00 +22°C° 0 mm 4 mps 732 mmHg 50%
    15:00 +22°C° 0 mm 4 mps 732 mmHg 53%
    16:00 +21°C° 0 mm 4 mps 732 mmHg 56%
    17:00 +19°C° 0 mm 4 mps 732 mmHg 61%
    18:00 +18°C° 0 mm 4 mps 733 mmHg 65%
    19:00 +15°C° 0 mm 4 mps 733 mmHg 70%
    20:00 +13°C° 0 mm 4 mps 733 mmHg 70%
    21:00 +12°C° 0 mm 4 mps 734 mmHg 70%
    22:00 +10°C° 0 mm 4 mps 734 mmHg 70%
    23:00 +9°C° 0 mm 3 mps 734 mmHg 69%

    Day after tomorrow, 31 May, Sunday

    Time Temperature Precipitation Wind Pressure Humidity
    00:00 +8°C° 0 mm 3 mps 734 mmHg 69%
    01:00 +7°C° 0 mm 3 mps 735 mmHg 69%
    02:00 +7°C° 0 mm 3 mps 735 mmHg 74%
    03:00 +5°C° 0 mm 3 mps 735 mmHg 79%
    04:00 +5°C° 0 mm 2 mps 735 mmHg 84%
    05:00 +7°C° 0 mm 3 mps 735 mmHg 80%
    06:00 +7°C° 0 mm 4 mps 736 mmHg 75%
    07:00 +8°C° 0 mm 4 mps 736 mmHg 71%
    08:00 +11°C° 0 mm 4 mps 737 mmHg 64%
    09:00 +12°C° 0 mm 4 mps 737 mmHg 58%
    10:00 +13°C° 0 mm 4 mps 737 mmHg 52%
    11:00 +14°C° 0 mm 4 mps 737 mmHg 48%
    12:00 +17°C° 0 mm 4 mps 737 mmHg 44%
    13:00 +18°C° 0 mm 4 mps 737 mmHg 40%
    14:00 +17°C° 0 mm 4 mps 737 mmHg 41%
    15:00 +17°C° 0 mm 4 mps 736 mmHg 41%
    16:00 +17°C° 0 mm 4 mps 736 mmHg 41%
    17:00 +15°C° 0 mm 4 mps 736 mmHg 48%
    18:00 +13°C° 0 mm 3 mps 737 mmHg 55%
    19:00 +12°C° 0 mm 2 mps 737 mmHg 61%
    20:00 +10°C° 0 mm 2 mps 737 mmHg 65%
    21:00 +8°C° 0 mm 2 mps 738 mmHg 70%
    22:00 +8°C° 0 mm 1 mps 738 mmHg 74%
    23:00 +7°C° 0 mm 1 mps 738 mmHg 77%

    1 June, Monday

    Time Temperature Precipitation Wind Pressure Humidity
    00:00 +6°C° 0 mm 1 mps 738 mmHg 81%
    01:00 +6°C° 0 mm 1 mps 738 mmHg 85%
    02:00 +5°C° 0 mm 1 mps 738 mmHg 86%
    03:00 +5°C° 0 mm 1 mps 738 mmHg 87%
    04:00 +5°C° 0 mm 1 mps 738 mmHg 88%
    05:00 +7°C° 0 mm 1 mps 738 mmHg 81%
    06:00 +8°C° 0 mm 2 mps 738 mmHg 74%
    07:00 +10°C° 0 mm 2 mps 739 mmHg 67%
    08:00 +12°C° 0 mm 3 mps 739 mmHg 59%
    09:00 +14°C° 0 mm 3 mps 739 mmHg 51%
    10:00 +17°C° 0 mm 4 mps 739 mmHg 43%
    11:00 +18°C° 0 mm 4 mps 739 mmHg 39%
    12:00 +19°C° 0 mm 4 mps 738 mmHg 36%
    13:00 +20°C° 0 mm 4 mps 738 mmHg 32%
    14:00 +20°C° 0 mm 4 mps 738 mmHg 33%
    15:00 +20°C° 0 mm 4 mps 738 mmHg 34%
    16:00 +20°C° 0 mm 3 mps 738 mmHg 34%
    17:00 +18°C° 0 mm 3 mps 738 mmHg 43%
    18:00 +17°C° 0 mm 3 mps 738 mmHg 51%
    19:00 +15°C° 0 mm 2 mps 738 mmHg 59%
    20:00 +13°C° 0 mm 2 mps 738 mmHg 64%
    21:00 +11°C° 0 mm 1 mps 739 mmHg 68%
    22:00 +10°C° 0 mm 1 mps 739 mmHg 72%
    23:00 +9°C° 0 mm 1 mps 739 mmHg 74%

    2 June, Tuesday

    Time Temperature Precipitation Wind Pressure Humidity
    00:00 +9°C° 0 mm 1 mps 739 mmHg 75%
    01:00 +8°C° 0 mm 1 mps 738 mmHg 77%
    02:00 +8°C° 0 mm 1 mps 739 mmHg 78%
    03:00 +8°C° 0 mm 1 mps 739 mmHg 80%
    04:00 +8°C° 0 mm 1 mps 739 mmHg 82%
    05:00 +9°C° 0 mm 1 mps 739 mmHg 77%
    06:00 +11°C° 0 mm 1 mps 739 mmHg 73%
    07:00 +13°C° 0 mm 1 mps 739 mmHg 68%
    08:00 +15°C° 0 mm 1 mps 739 mmHg 62%
    09:00 +18°C° 0 mm 2 mps 739 mmHg 57%
    10:00 +20°C° 0 mm 2 mps 739 mmHg 51%
    11:00 +21°C° 0.1 mm 2 mps 739 mmHg 50%
    12:00 +21°C° 0.1 mm 2 mps 738 mmHg 49%
    13:00 +23°C° 0.1 mm 2 mps 738 mmHg 48%
    14:00 +21°C° 0.1 mm 2 mps 737 mmHg 56%
    15:00 +21°C° 0.1 mm 1 mps 737 mmHg 63%
    16:00 +20°C° 0.1 mm 1 mps 737 mmHg 71%
    17:00 +19°C° 0 mm 1 mps 737 mmHg 75%
    18:00 +18°C° 0 mm 1 mps 737 mmHg 79%
    19:00 +16°C° 0 mm 1 mps 736 mmHg 83%
    20:00 +14°C° 0 mm 0 mps 736 mmHg 84%
    21:00 +13°C° 0 mm 0 mps 737 mmHg 86%
    22:00 +12°C° 0 mm 0 mps 737 mmHg 87%
    23:00 +13°C° 0 mm 1 mps 736 mmHg 86%

    3 June, Wednesday

    Time Temperature Precipitation Wind Pressure Humidity
    00:00 +14°C° 0 mm 1 mps 736 mmHg 86%
    01:00 +14°C° 0 mm 1 mps 736 mmHg 85%
    02:00 +13°C° 0.1 mm 1 mps 735 mmHg 88%
    03:00 +13°C° 0.1 mm 1 mps 735 mmHg 91%
    04:00 +13°C° 0.1 mm 1 mps 734 mmHg 94%
    05:00 +13°C° 0 mm 1 mps 734 mmHg 93%
    06:00 +14°C° 0 mm 1 mps 735 mmHg 92%
    07:00 +14°C° 0 mm 1 mps 735 mmHg 92%
    08:00 +16°C° 0 mm 1 mps 734 mmHg 84%
    09:00 +18°C° 0 mm 2 mps 734 mmHg 76%
    10:00 +20°C° 0 mm 3 mps 734 mmHg 68%
    11:00 +21°C° 0 mm 3 mps 733 mmHg 67%
    12:00 +22°C° 0 mm 3 mps 733 mmHg 65%
    13:00 +24°C° 0 mm 3 mps 732 mmHg 64%
    14:00 +25°C° 0.1 mm 3 mps 732 mmHg 67%
    15:00 +25°C° 0.1 mm 3 mps 731 mmHg 69%
    16:00 +25°C° 0.1 mm 2 mps 731 mmHg 72%
    17:00 +24°C° 1.2 mm 2 mps 731 mmHg 79%
    18:00 +23°C° 1.2 mm 1 mps 730 mmHg 86%
    19:00 +21°C° 1.2 mm 1 mps 730 mmHg 94%
    20:00 +21°C° 0.5 mm 1 mps 730 mmHg 95%
    21:00 +20°C° 0.5 mm 1 mps 730 mmHg 96%
    22:00 +19°C° 0.5 mm 1 mps 730 mmHg 97%
    23:00 +19°C° 0.7 mm 1 mps 729 mmHg 97%
    Show more